Location: Newark
(23.3970°S, 47.6010°W)
Time: 14:36:48
(UTC+00:00)

Tiros 1 despin weight - Pass Details

Date: 23 February 2020
Orbit: 593 x 642 km, 48.2° (Epoch: 31 March)

Event Time Altitude Azimuth Distance (km) Brightness Sun altitude
Rises 21:11:49 0° 211° (SSW) 2,964 ? 6.6°
Reaches altitude 10° 21:14:34 10° 196° (SSW) 2,048 ? 6.0°
Maximum altitude 21:18:22 24° 143° (SE) 1,348 ? 5.1°
Drops below altitude 10° 21:22:07 10° 89° (E) 2,022 ? 4.2°
Sets 21:24:49 0° 75° (ENE) 2,917 ? 3.6°
